Voltar ao catálogo

PRAETORIAN SDA_603

AtivoMilitarPO
NORAD 65566·PAYLOAD·🇺🇸 United States

Lançado Sep 10, 2025 de Vandenberg Space Force Base

Loading…

Próximas Passagens (próximas 24 horas)

TLE

AtualizadoSource: Space-Track

Época: Sep 14, 2026, 11:32 UTC

1 65566U 25203B   26257.48097799  .00000175  00000-0  14689-3 0  9999
2 65566  81.3009 288.0348 0008705 314.5410  45.5035 13.83966163 51051

Acompanhe PRAETORIAN SDA_603 em tempo real com AllMySat

Download on the App Store